Location: RyutenAO
(34.8939°N, 134.0022°E)
Time: 09:26:32
(UTC+09:00)

Oscar 19 - Pass Details

Date: 11 April 2023
Orbit: 773 x 788 km, 98.8° (Epoch: 29 May)

Event Time Altitude Azimuth Distance (km) Brightness Sun altitude
Rises 03:10:04 0° 30° (NNE) 3,275 14.8 -28.8°
Reaches altitude 10° 03:12:54 10° 45° (NE) 2,345 14.0 -28.3°
Maximum altitude 03:16:52 22° 96° (E) 1,655 12.8 -27.7°
Drops below altitude 10° 03:20:50 10° 146° (SE) 2,339 13.1 -27.0°
Enters shadow 03:21:59 - 153° (SSE) 2,700 13.4 -26.8°
